Tracking 25689 objects as of 7-Jul-2022
HD Live streaming from Space Station
objects crossing your sky now

FENGYUN 1C DEB

Track FENGYUN 1C DEB now!
10-day predictions


NORAD ID: 29843
Int'l Code: 1999-025EM
Perigee: 671.5 km
Apogee: 960.7 km
Inclination: 99.0 °
Period: 101.1 minutes
Semi major axis: 7187 km
RCS: 0.054 m2 (small)
Launch date: May 10, 1999
Source: People's Republic of China (PRC)
Launch site: Taiyaun Space Center, China (TSC)

Note: This is SATELLITE DEBRIS
aabbcc
Your satellite tracking list
Your tracking list is empty




NASA's NSSDC Master Catalog

Two Line Element Set (TLE):
1 29843U 99025EM  22187.65451437  .00000251  00000-0  10531-3 0  9997
2 29843  98.9618 330.8024 0201159 314.0781  56.8951 14.24859862803870
Source of the keplerian elements: AFSPC